TimeEDT,TemperatureF,Dew PointF,Humidity,Sea Level PressureIn,VisibilityMPH,Wind Direction,Wind SpeedMPH,Gust SpeedMPH,PrecipitationIn,Events,Conditions,WindDirDegrees,DateUTC
12:15 AM,64.4,-23.8,4,30.03,10.0,SSW,6.9,-,N/A,,Clear,210,2013-04-08 04:15:00
12:35 AM,62.6,-25.6,4,30.04,10.0,SSW,6.9,-,N/A,,Clear,210,2013-04-08 04:35:00
12:55 AM,62.6,-25.6,4,30.04,10.0,SSW,5.8,-,N/A,,Clear,210,2013-04-08 04:55:00
1:15 AM,60.8,-25.6,4,30.04,10.0,SW,4.6,-,N/A,,Clear,230,2013-04-08 05:15:00
1:35 AM,60.8,-27.4,4,30.04,10.0,Calm,Calm,-,N/A,,Clear,0,2013-04-08 05:35:00
1:55 AM,59.0,-27.4,4,30.04,10.0,Calm,Calm,-,N/A,,Clear,0,2013-04-08 05:55:00
2:15 AM,57.2,-27.4,4,30.04,10.0,Calm,Calm,-,N/A,,Clear,0,2013-04-08 06:15:00
2:35 AM,57.2,-29.2,4,30.04,10.0,Calm,Calm,-,N/A,,Clear,0,2013-04-08 06:35:00
2:55 AM,53.6,-31.0,4,30.04,10.0,Calm,Calm,-,N/A,,Clear,0,2013-04-08 06:55:00
3:15 AM,51.8,-29.2,4,30.04,10.0,Calm,Calm,-,N/A,,Clear,0,2013-04-08 07:15:00
3:35 AM,48.2,-20.2,5,30.04,10.0,Calm,Calm,-,N/A,,Clear,0,2013-04-08 07:35:00
3:55 AM,50.0,1.4,14,30.04,10.0,Calm,Calm,-,N/A,,Clear,0,2013-04-08 07:55:00
4:15 AM,48.2,8.6,20,30.04,10.0,Calm,Calm,-,N/A,,Clear,0,2013-04-08 08:15:00
4:35 AM,50.0,15.8,26,30.04,10.0,Calm,Calm,-,N/A,,Scattered Clouds,0,2013-04-08 08:35:00
4:55 AM,51.8,17.6,26,30.04,10.0,Calm,Calm,-,N/A,,Scattered Clouds,0,2013-04-08 08:55:00
5:15 AM,53.6,19.4,26,30.04,10.0,Calm,Calm,-,N/A,,Clear,0,2013-04-08 09:15:00
5:35 AM,51.8,17.6,26,30.04,10.0,Calm,Calm,-,N/A,,Clear,0,2013-04-08 09:35:00
5:55 AM,51.8,23.0,33,30.04,10.0,Calm,Calm,-,N/A,,Clear,0,2013-04-08 09:55:00
6:15 AM,48.2,24.8,40,30.05,10.0,Calm,Calm,-,N/A,,Clear,0,2013-04-08 10:15:00
6:35 AM,48.2,21.2,34,30.05,10.0,Calm,Calm,-,N/A,,Clear,0,2013-04-08 10:35:00
6:55 AM,51.8,28.4,41,30.06,10.0,Calm,Calm,-,N/A,,Clear,0,2013-04-08 10:55:00
7:15 AM,51.8,28.4,41,30.07,10.0,Calm,Calm,-,N/A,,Clear,0,2013-04-08 11:15:00
7:35 AM,51.8,30.2,44,30.08,10.0,Calm,Calm,-,N/A,,Clear,0,2013-04-08 11:35:00
7:55 AM,53.6,33.8,47,30.08,10.0,Calm,Calm,-,N/A,,Clear,0,2013-04-08 11:55:00
8:15 AM,55.4,33.8,44,30.09,10.0,Calm,Calm,-,N/A,,Clear,0,2013-04-08 12:15:00
8:35 AM,57.2,32.0,38,30.09,10.0,Calm,Calm,-,N/A,,Clear,0,2013-04-08 12:35:00
8:55 AM,59.0,26.6,29,30.08,10.0,Calm,Calm,-,N/A,,Clear,0,2013-04-08 12:55:00
9:15 AM,60.8,19.4,20,30.09,10.0,Calm,Calm,-,N/A,,Clear,0,2013-04-08 13:15:00
9:35 AM,60.8,3.2,10,30.09,10.0,Calm,Calm,-,N/A,,Clear,0,2013-04-08 13:35:00
9:55 AM,64.4,-16.6,4,30.09,10.0,Calm,Calm,-,N/A,,Clear,0,2013-04-08 13:55:00
10:15 AM,66.2,-23.8,4,30.10,10.0,WSW,3.5,-,N/A,,Clear,250,2013-04-08 14:15:00
10:35 AM,66.2,-23.8,4,30.09,10.0,Calm,Calm,-,N/A,,Clear,0,2013-04-08 14:35:00
10:55 AM,69.8,-22.0,4,30.09,10.0,Calm,Calm,-,N/A,,Clear,0,2013-04-08 14:55:00
11:15 AM,69.8,-20.2,4,30.09,10.0,Calm,Calm,-,N/A,,Clear,0,2013-04-08 15:15:00
11:35 AM,73.4,-18.4,4,30.08,10.0,SW,3.5,-,N/A,,Clear,220,2013-04-08 15:35:00
11:55 AM,75.2,-16.6,4,30.07,10.0,SSE,4.6,-,N/A,,Clear,160,2013-04-08 15:55:00
12:15 PM,78.8,-14.8,4,30.07,10.0,SSW,6.9,-,N/A,,Clear,200,2013-04-08 16:15:00
12:35 PM,82.4,-11.2,4,30.06,10.0,SSE,5.8,-,N/A,,Clear,150,2013-04-08 16:35:00
12:55 PM,87.8,-5.8,4,30.05,10.0,Calm,Calm,-,N/A,,Clear,0,2013-04-08 16:55:00
1:15 PM,87.8,-2.2,4,30.04,10.0,South,4.6,-,N/A,,Clear,170,2013-04-08 17:15:00
1:35 PM,80.6,42.8,26,30.03,10.0,South,3.5,-,N/A,,Clear,180,2013-04-08 17:35:00
1:55 PM,80.6,42.8,26,30.02,10.0,South,5.8,-,N/A,,Clear,180,2013-04-08 17:55:00
2:15 PM,82.4,42.8,25,30.01,10.0,SSW,9.2,-,N/A,,Clear,210,2013-04-08 18:15:00
2:35 PM,82.4,42.8,25,30.01,10.0,SSW,8.1,-,N/A,,Clear,210,2013-04-08 18:35:00
2:55 PM,82.4,44.6,26,30.00,10.0,SSW,11.5,17.3,N/A,,Clear,210,2013-04-08 18:55:00
3:15 PM,82.4,44.6,26,29.99,10.0,South,4.6,17.3,N/A,,Clear,190,2013-04-08 19:15:00
3:35 PM,82.4,44.6,26,29.98,10.0,SSW,11.5,-,N/A,,Clear,200,2013-04-08 19:35:00
3:55 PM,82.4,44.6,26,29.98,10.0,SW,10.4,20.7,N/A,,Clear,220,2013-04-08 19:55:00
4:15 PM,82.4,42.8,25,29.97,10.0,South,12.7,21.9,N/A,,Clear,190,2013-04-08 20:15:00
4:35 PM,80.6,42.8,26,29.97,10.0,South,12.7,19.6,N/A,,Clear,190,2013-04-08 20:35:00
4:55 PM,82.4,44.6,26,29.96,10.0,SSW,11.5,18.4,N/A,,Clear,200,2013-04-08 20:55:00
5:15 PM,82.4,44.6,26,29.96,10.0,South,9.2,-,N/A,,Clear,190,2013-04-08 21:15:00
5:35 PM,82.4,42.8,25,29.95,10.0,South,10.4,17.3,N/A,,Clear,190,2013-04-08 21:35:00
5:55 PM,80.6,44.6,28,29.95,10.0,SSW,11.5,-,N/A,,Clear,210,2013-04-08 21:55:00
6:15 PM,80.6,44.6,28,29.96,10.0,South,9.2,-,N/A,,Clear,190,2013-04-08 22:15:00
6:35 PM,80.6,44.6,28,29.96,10.0,SSW,11.5,-,N/A,,Clear,200,2013-04-08 22:35:00
6:55 PM,78.8,44.6,30,29.96,10.0,South,5.8,-,N/A,,Clear,190,2013-04-08 22:55:00
7:15 PM,78.8,46.4,32,29.97,10.0,South,6.9,-,N/A,,Clear,180,2013-04-08 23:15:00
7:35 PM,77.0,46.4,34,29.97,10.0,South,6.9,-,N/A,,Clear,170,2013-04-08 23:35:00
7:55 PM,75.2,46.4,36,29.97,10.0,South,5.8,-,N/A,,Clear,180,2013-04-08 23:55:00
8:15 PM,73.4,46.4,38,29.98,10.0,South,3.5,-,N/A,,Clear,170,2013-04-09 00:15:00
8:35 PM,71.6,46.4,41,29.98,10.0,South,3.5,-,N/A,,Clear,170,2013-04-09 00:35:00
8:55 PM,71.6,46.4,41,29.98,10.0,South,4.6,-,N/A,,Clear,180,2013-04-09 00:55:00
9:15 PM,71.6,46.4,41,29.99,10.0,South,4.6,-,N/A,,Clear,180,2013-04-09 01:15:00
9:35 PM,71.6,46.4,41,29.99,10.0,South,5.8,-,N/A,,Clear,190,2013-04-09 01:35:00
9:55 PM,71.6,46.4,41,30.00,10.0,South,5.8,-,N/A,,Clear,180,2013-04-09 01:55:00
10:15 PM,71.6,48.2,43,30.00,10.0,South,5.8,-,N/A,,Clear,180,2013-04-09 02:15:00
10:35 PM,71.6,48.2,43,30.00,10.0,SSW,5.8,-,N/A,,Clear,200,2013-04-09 02:35:00
10:55 PM,71.6,48.2,43,30.00,10.0,South,4.6,-,N/A,,Clear,190,2013-04-09 02:55:00
11:15 PM,71.6,48.2,43,29.99,10.0,South,6.9,-,N/A,,Clear,180,2013-04-09 03:15:00
11:35 PM,71.6,48.2,43,29.99,10.0,South,9.2,-,N/A,,Clear,190,2013-04-09 03:35:00
11:55 PM,71.6,50.0,46,30.00,10.0,SSW,8.1,-,N/A,,Clear,200,2013-04-09 03:55:00